Location: Rancho Del Sol Observatory
(38.7214°N, 120.6350°W)
Time: 06:50:36
(UTC-08:00)

A-11 Canister half - Pass Details

Date: 02 February 2020
Orbit: 1517 x 1683 km, 47.2° (Epoch: 26 February)

Event Time Altitude Azimuth Distance (km) Brightness Sun altitude
Rises 19:05:05 0° 197° (SSW) 4,845 11.9 -19.7°
Reaches altitude 10° 19:08:44 10° 187° (S) 3,837 11.2 -20.4°
Maximum altitude 19:16:49 31° 130° (SE) 2,522 9.7 -22.0°
Enters shadow 19:18:28 29° 113° (ESE) 2,581 9.7 -22.3°
Drops below altitude 10° 19:24:41 10° 73° (ENE) 3,740 - -23.5°
Sets 19:28:09 0° 64° (ENE) 4,706 - -24.2°
